This is the latest recevied weather packets stored in our database for station/object K1PM-WX. If no packets are shown the sender has not sent any weather packets the latest 1 day(s).
| Time | Temp. | Humidity | Pressure | Rain* | Wind** | Luminosity | Snow |
|---|---|---|---|---|---|---|---|
| 1778093337 | 11.67° C | 86% | 1032 hPa | 0 mm | - | - | - |
| 1778091538 | 12.22° C | 84% | 1032 hPa | 0 mm | - | - | - |
| 1778091237 | 11.67° C | 84% | 1032 hPa | 0 mm | - | - | - |
| 1778090038 | 12.22° C | 87% | 1032 hPa | 0 mm | - | - | - |
| 1778089737 | 12.22° C | 90% | 1032 hPa | 0 mm | - | - | - |
| 1778088838 | 11.67° C | 93% | 1032 hPa | 0 mm | - | - | - |
| 1778088237 | 11.11° C | 96% | 1032 hPa | 0 mm | - | - | - |
| 1778087337 | 10.56° C | 97% | 1032 hPa | 0 mm | - | - | - |
| 1778087037 | 10° C | 97% | 1032 hPa | 0 mm | - | - | - |
| 1778086139 | 10° C | 98% | 1032 hPa | 0 mm | - | - | - |
| 1778084937 | 9.44° C | 97% | 1032 hPa | 0 mm | - | - | - |
| 1778084037 | 9.44° C | 96% | 1032 hPa | 0 mm | - | - | - |
| 1778082837 | 10° C | 97% | 1032 hPa | 0 mm | - | - | - |
| 1778081037 | 9.44° C | 99% | 1032 hPa | 0 mm | - | - | - |
| 1778080737 | 9.44° C | 99% | 1032 hPa | 0 mm | - | - | - |
| 1778078937 | 8.89° C | 99% | 1032 hPa | 0.51 mm | - | - | - |
| 1778077736 | 8.33° C | 99% | 1032 hPa | 0.51 mm | - | - | - |
| 1778076838 | 7.78° C | 99% | 1032 hPa | 0.25 mm | - | - | - |
| 1778076537 | 7.78° C | 99% | 1031 hPa | 0.25 mm | - | - | - |
| 1778076237 | 7.78° C | 99% | 1031 hPa | 0.25 mm | - | - | - |
| 1778075937 | 7.78° C | 99% | 1031 hPa | 0 mm | - | - | - |
| 1778075040 | 7.78° C | 99% | 1031 hPa | 0 mm | - | - | - |
| 1778073837 | 7.22° C | 99% | 1031 hPa | 0.25 mm | - | - | - |
| 1778073537 | 7.22° C | 99% | 1031 hPa | 0.25 mm | - | - | - |
| 1778072336 | 7.22° C | 99% | 1031 hPa | 0.51 mm | - | - | - |
* Rain latest hour (hover to see other rain measurements)
** Current wind speed in m/s (hover to see current wind gust speed)